| time (UTC) | temp F | wind direction | speed knots | gust knots | rain 1hr in | rain 24hr in | rain mn in | humidity % | barometer mb |
| 20260504210005 | 49 | 270 | 5.2 | 6.1 | 0.00 | 0.00 | 0.00 | 95 | 1021.5 |
| 20260504204505 | 49 | 270 | 5.2 | 6.1 | 0.00 | 0.00 | 0.00 | 95 | 1021.5 |
| 20260504203005 | 49 | 270 | 4.3 | 5.2 | 0.00 | 0.00 | 0.00 | 95 | 1021.3 |
| 20260504201504 | 49 | 270 | 4.3 | 5.2 | 0.00 | 0.00 | 0.00 | 95 | 1021.3 |
| 20260504200005 | 49 | 292 | 4.3 | 5.2 | 0.00 | 0.00 | 0.00 | 95 | 1021.1 |
| 20260504194505 | 49 | 292 | 4.3 | 5.2 | 0.00 | 0.00 | 0.00 | 95 | 1021.1 |
| 20260504193005 | 49 | 270 | 4.3 | 5.2 | 0.00 | 0.00 | 0.00 | 95 | 1020.9 |
| 20260504191504 | 49 | 270 | 4.3 | 5.2 | 0.00 | 0.00 | 0.00 | 95 | 1020.9 |
| 20260504190004 | 49 | 270 | 4.3 | 6.1 | 0.00 | 0.00 | 0.00 | 95 | 1020.8 |
| 20260504184505 | 49 | 270 | 4.3 | 6.1 | 0.00 | 0.00 | 0.00 | 95 | 1020.8 |
| 20260504183005 | 49 | 292 | 4.3 | 4.3 | 0.00 | 0.00 | 0.00 | 95 | 1020.6 |
| 20260504181505 | 49 | 292 | 4.3 | 4.3 | 0.00 | 0.00 | 0.00 | 95 | 1020.6 |
| 20260504180005 | 50 | 292 | 4.3 | 5.2 | 0.00 | 0.00 | 0.00 | 93 | 1020.6 |
| 20260504174505 | 50 | 292 | 4.3 | 5.2 | 0.00 | 0.00 | 0.00 | 93 | 1020.6 |
| 20260504173004 | 51 | 292 | 6.1 | 7.0 | 0.00 | 0.00 | 0.00 | 94 | 1020.7 |
| 20260504171506 | 51 | 292 | 6.1 | 7.0 | 0.00 | 0.00 | 0.00 | 94 | 1020.7 |
| 20260504081505 | 64 | 225 | 7.8 | 13.0 | 0.00 | 0.00 | 0.00 | 59 | 1015.9 |
| 20260504050004 | 68 | 292 | 13.0 | 19.1 | 0.00 | 0.00 | 0.00 | 52 | 1014.1 |
| 20260504044505 | 68 | 292 | 13.0 | 19.1 | 0.00 | 0.00 | 0.00 | 52 | 1014.1 |
| 20260504043005 | 69 | 292 | 13.9 | 22.6 | 0.00 | 0.00 | 0.00 | 50 | 1013.9 |
| 20260504041504 | 69 | 292 | 13.9 | 22.6 | 0.00 | 0.00 | 0.00 | 50 | 1013.9 |
| 20260504040004 | 67 | 292 | 14.8 | 21.7 | 0.00 | 0.00 | 0.00 | 53 | 1014.0 |
| 20260504034505 | 67 | 292 | 14.8 | 21.7 | 0.00 | 0.00 | 0.00 | 53 | 1014.0 |
| 20260504033004 | 68 | 270 | 13.9 | 20.9 | 0.00 | 0.00 | 0.00 | 51 | 1014.3 |
| 20260504031505 | 68 | 270 | 13.9 | 20.9 | 0.00 | 0.00 | 0.00 | 51 | 1014.3 |
| 20260504030005 | 67 | 292 | 13.0 | 20.0 | 0.00 | 0.00 | 0.00 | 58 | 1014.8 |
| 20260504024505 | 67 | 292 | 13.0 | 20.0 | 0.00 | 0.00 | 0.00 | 58 | 1014.8 |
| 20260504023004 | 65 | 270 | 13.0 | 19.1 | 0.00 | 0.00 | 0.00 | 61 | 1014.8 |
| 20260504021504 | 65 | 270 | 13.0 | 19.1 | 0.00 | 0.00 | 0.00 | 61 | 1014.8 |
| 20260504020004 | 66 | 292 | 13.0 | 20.0 | 0.00 | 0.00 | 0.00 | 60 | 1014.9 |
| 20260504014505 | 66 | 292 | 13.0 | 20.0 | 0.00 | 0.00 | 0.00 | 60 | 1014.9 |
| 20260504013005 | 64 | 292 | 14.8 | 22.6 | 0.00 | 0.00 | 0.00 | 63 | 1014.8 |
| 20260504011504 | 64 | 292 | 14.8 | 22.6 | 0.00 | 0.00 | 0.00 | 63 | 1014.8 |
| 20260504010005 | 62 | 292 | 14.8 | 22.6 | 0.00 | 0.00 | 0.00 | 65 | 1014.7 |
| 20260504004505 | 62 | 292 | 14.8 | 22.6 | 0.00 | 0.00 | 0.00 | 65 | 1014.7 |
| 20260504003005 | 61 | 292 | 12.2 | 19.1 | 0.00 | 0.00 | 0.00 | 68 | 1014.4 |
| 20260504001504 | 61 | 292 | 12.2 | 19.1 | 0.00 | 0.00 | 0.00 | 68 | 1014.4 |
| 20260504000005 | 59 | 315 | 12.2 | 15.6 | 0.00 | 0.00 | 0.00 | 70 | 1014.3 |
| 20260503234505 | 59 | 315 | 12.2 | 15.6 | 0.00 | 0.00 | 0.00 | 70 | 1014.3 |
| 20260503233004 | 58 | 315 | 8.7 | 13.9 | 0.00 | 0.00 | 0.00 | 72 | 1014.4 |
| 20260503231505 | 58 | 315 | 8.7 | 13.9 | 0.00 | 0.00 | 0.00 | 72 | 1014.4 |
| 20260503230005 | 56 | 337 | 7.8 | 13.0 | 0.00 | 0.00 | 0.00 | 76 | 1014.0 |
| 20260503224504 | 56 | 337 | 7.8 | 13.0 | 0.00 | 0.00 | 0.00 | 76 | 1014.0 |
| 20260503223004 | 55 | 337 | 7.8 | 13.0 | 0.00 | 0.00 | 0.00 | 78 | 1013.8 |
| 20260503221504 | 55 | 337 | 7.8 | 13.0 | 0.00 | 0.00 | 0.00 | 78 | 1013.8 |
| 20260503220004 | 54 | 337 | 7.0 | 13.0 | 0.00 | 0.00 | 0.00 | 80 | 1013.6 |
| 20260503214505 | 54 | 337 | 7.0 | 13.0 | 0.00 | 0.00 | 0.00 | 80 | 1013.6 |
| 20260503213005 | 54 | 315 | 7.8 | 12.2 | 0.00 | 0.00 | 0.00 | 81 | 1013.4 |
| 20260503211504 | 54 | 315 | 7.8 | 12.2 | 0.00 | 0.00 | 0.00 | 81 | 1013.4 |